Location: Gro�bocka
(50.8204°N, 11.9702°E)
Time: 07:29:41
(UTC+00:00)

Cosmos 2074 Rocket - Pass Details

Date: 29 October 2020
Orbit: 967 x 987 km, 82.9° (Epoch: 01 December)

Event Time Altitude Azimuth Distance (km) Brightness Sun altitude
Rises 18:50:15 0° 350° (N) 3,676 7.3 -28.6°
Reaches altitude 10° 18:52:47 10° 352° (N) 2,723 6.6 -29.0°
Enters shadow 18:58:05 65° 14° (NNE) 1,063 4.1 -29.8°
